VE6EN Weather Reports


time (UTC)temp
C
wind
direction
speed
KPH
gust
KPH
rain 1hr
cm
rain 24hr
cm
rain mn
cm
humidity
%
barometer
mb
20260504081958 6 249 0.0 0.0 0.00 0.03 0.03 69 1014.3
20260504080957 6 249 0.0 0.0 0.00 0.03 0.03 66 1014.4
20260504050001 10 200 1.6 8.0 0.00 0.00 0.00 50 1013.6
20260504045004 10 170 1.6 9.7 0.00 0.00 0.00 49 1013.5
20260504044005 10 65 1.6 8.0 0.00 0.00 0.00 48 1013.4
20260504043000 10 76 1.6 4.8 0.00 0.00 0.00 46 1013.3
20260504042001 10 86 1.6 11.3 0.00 0.00 0.00 45 1013.1
20260504041004 10 31 3.2 9.7 0.00 0.00 0.00 43 1013.0
20260504040004 10 59 3.2 14.5 0.00 0.00 0.00 42 1012.8
20260504035002 11 71 3.2 11.3 0.00 0.00 0.00 42 1012.5
20260504034004 11 63 4.8 11.3 0.00 0.00 0.00 41 1012.2
20260504033005 11 53 4.8 11.3 0.00 0.00 0.00 41 1011.9
20260504032000 11 59 4.8 14.5 0.00 0.00 0.00 40 1011.3
20260504031002 12 33 6.4 17.7 0.00 0.00 0.00 39 1011.1
20260504025959 12 61 8.0 16.1 0.00 0.00 0.00 39 1010.8
20260504025000 12 76 6.4 19.3 0.00 0.00 0.00 39 1010.6
20260504024000 12 80 4.8 14.5 0.00 0.00 0.00 39 1010.4
20260504022959 12 66 4.8 11.3 0.00 0.00 0.00 39 1010.3
20260504021959 13 55 6.4 12.9 0.00 0.00 0.00 38 1010.2
20260504021000 13 73 6.4 14.5 0.00 0.00 0.00 37 1010.2
20260504020002 13 70 6.4 16.1 0.00 0.00 0.00 35 1010.0
20260504014959 14 71 8.0 19.3 0.00 0.00 0.00 35 1009.8
20260504014004 15 74 8.0 17.7 0.00 0.00 0.00 35 1009.4
20260504013005 15 53 6.4 14.5 0.00 0.00 0.00 35 1009.3
20260504012000 16 78 6.4 19.3 0.00 0.00 0.00 34 1009.0
20260504011004 16 67 6.4 17.7 0.00 0.00 0.00 33 1008.8
20260504010000 17 88 4.8 12.9 0.00 0.00 0.00 33 1008.7
20260504004959 17 84 4.8 12.9 0.00 0.00 0.00 33 1008.5
20260504004000 18 181 3.2 11.3 0.00 0.00 0.00 34 1008.5
20260504003000 18 107 3.2 11.3 0.00 0.00 0.00 33 1008.5
20260504001959 18 68 3.2 12.9 0.00 0.00 0.00 33 1008.5
20260504000959 18 211 4.8 14.5 0.00 0.00 0.00 33 1008.3
20260504000000 18 136 4.8 22.5 0.00 0.00 0.00 31 1008.2
20260503234959 18 213 4.8 24.1 0.00 0.00 0.00 31 1008.1
20260503234000 18 98 6.4 14.5 0.00 0.00 0.00 32 1008.2
20260503232959 18 103 4.8 17.7 0.00 0.00 0.00 31 1008.0
20260503232004 19 74 6.4 12.9 0.00 0.00 0.00 30 1008.0
20260503230959 19 92 4.8 14.5 0.00 0.00 0.00 30 1008.0
20260503230006 20 65 4.8 16.1 0.00 0.00 0.00 29 1008.0
20260503225002 20 89 6.4 17.7 0.00 0.00 0.00 29 1008.0
20260503223959 21 101 8.0 20.9 0.00 0.00 0.00 27 1007.9
20260503223004 22 93 4.8 17.7 0.00 0.00 0.00 26 1007.8
20260503221959 22 67 1.6 11.3 0.00 0.00 0.00 26 1007.8
20260503220958 22 66 1.6 6.4 0.00 0.00 0.00 25 1007.6
20260503220002 21 74 3.2 11.3 0.00 0.00 0.00 24 1007.8
20260503215004 22 59 3.2 11.3 0.00 0.00 0.00 23 1007.8
20260503214004 21 93 3.2 22.5 0.00 0.00 0.00 25 1008.0
20260503213004 21 63 1.6 9.7 0.00 0.00 0.00 25 1008.0
20260503212000 21 65 1.6 9.7 0.00 0.00 0.00 25 1007.9
20260503211004 21 82 1.6 11.3 0.00 0.00 0.00 26 1008.0
20260503210000 21 135 3.2 11.3 0.00 0.00 0.00 26 1008.1
20260503205004 21 60 3.2 11.3 0.00 0.00 0.00 24 1008.3
20260503204002 21 92 3.2 14.5 0.00 0.00 0.00 25 1008.2
20260503203000 21 59 1.6 12.9 0.00 0.00 0.00 26 1008.4
20260503201959 21 229 1.6 6.4 0.00 0.00 0.00 22 1008.4
20260503201003 21 217 3.2 9.7 0.00 0.00 0.00 22 1008.6
20260503200004 21 263 1.6 11.3 0.00 0.00 0.00 22 1008.8
20260503194959 21 222 1.6 8.0 0.00 0.00 0.00 21 1008.7
20260503193959 21 287 1.6 6.4 0.00 0.00 0.00 21 1009.0
20260503192959 21 296 1.6 8.0 0.00 0.00 0.00 22 1009.0
20260503191959 20 124 0.0 4.8 0.00 0.00 0.00 25 1009.2
20260503190959 20 65 1.6 11.3 0.00 0.00 0.00 24 1009.3
20260503185959 20 269 1.6 8.0 0.00 0.00 0.00 23 1009.5
20260503184959 20 328 3.2 9.7 0.00 0.00 0.00 27 1009.8
20260503183959 20 254 0.0 4.8 0.00 0.00 0.00 21 1009.9
20260503182959 20 255 1.6 4.8 0.00 0.00 0.00 25 1010.1
20260503181959 20 275 3.2 8.0 0.00 0.00 0.00 23 1009.9
20260503180959 20 292 1.6 8.0 0.00 0.00 0.00 22 1010.2
20260503180000 19 275 3.2 9.7 0.00 0.00 0.00 24 1010.2
20260503174959 18 313 1.6 8.0 0.00 0.00 0.00 25 1010.3
20260503174004 18 214 1.6 9.7 0.00 0.00 0.00 25 1010.6
20260503172959 18 261 1.6 11.3 0.00 0.00 0.00 27 1010.8
20260503171959 18 254 1.6 9.7 0.00 0.00 0.00 27 1010.9
20260503170959 18 282 3.2 12.9 0.00 0.00 0.00 28 1011.0
20260503150958 11 298 3.2 9.7 0.00 0.00 0.00 42 1011.5
20260503130959 7 301 0.0 0.0 0.00 0.00 0.00 47 1011.6